[ hide orbit diagram ]
For accurate long-term ephemerides, please instead use our Horizons system.This orbit viewer was implemented using two-body methods, and hence should not be used for determining accurate long-term trajectories (over several years or decades) or planetary encounter circumstances.
Orbital Elements at Epoch 2454461.5 (2007-Dec-27.0) TDB
Reference: JPL 42 (heliocentric ecliptic J2000)
Element | Value | Uncertainty (1-sigma) | Units |
e | .3332444293860415 | 6.1151e-07 | |
a | 4.90767838556881 | 1.1669e-07 | au |
q | 3.272221902359723 | 2.9758e-06 | au |
i | 12.1210582408734 | 4.1804e-05 | deg |
node | 234.8196348909933 | 0.00015012 | deg |
peri | 133.690307828843 | 0.00020902 | deg |
M | 338.0621926868761 | 7.3198e-05 | deg |
tp | 2454703.493268445084 (2008-Aug-24.99326845) | 0.00081353 | TDB |
period | 3971.115955062361 10.87 | 0.00014164 3.878e-07 | d yr |
n | .09065461801513844 | 3.2334e-09 | deg/d |
Q | 6.543134868777898 | 1.5558e-07 | au |
|
| | Orbit Determination Parameters
Additional Information
|
[ hide covariance matrix ]
Orbit Covariance (6×6)
|
|
e |
q |
tp |
node |
peri |
i |
e |
3.73945929401625E-13 |
-1.819157129439218E-12 |
3.842070272877615E-10 |
5.795416099948996E-12 |
6.030500856129443E-11 |
-3.82822874704782E-12 |
q |
-1.819157129439218E-12 |
8.855127546711006E-12 |
-1.840746364917766E-9 |
-2.849941336911722E-11 |
-2.874242382895962E-10 |
1.869233410640072E-11 |
tp |
3.842070272877615E-10 |
-1.840746364917766E-9 |
6.618276436265893E-7 |
1.036588721396559E-9 |
1.198155763879943E-7 |
-2.843046686363062E-9 |
node |
5.795416099948996E-12 |
-2.849941336911722E-11 |
1.036588721396559E-9 |
2.2537495533878E-8 |
-2.197417769312668E-8 |
-5.955041899464239E-9 |
peri |
6.030500856129443E-11 |
-2.874242382895962E-10 |
1.198155763879943E-7 |
-2.197417769312668E-8 |
4.368787224178787E-8 |
5.353696784461719E-9 |
i |
-3.82822874704782E-12 |
1.869233410640072E-11 |
-2.843046686363062E-9 |
-5.955041899464239E-9 |
5.353696784461719E-9 |
1.747542875253774E-9 |
|
[ show close-approach data ]
Alternate Designations
Perihelion Year (est.) | New-Style Desig | Roman Numeral | Year/ Letter | 2008.6 | 200P/2008 L1 | | |
1997.8 | 200P/1997 V1 | | |
|
|